Location: Bauen
(46.9356°N, 8.5784°E)
Time: 20:48:24
(UTC+00:00)

Cosmos 2123 Rocket - Pass Details

Date: 18 February 2020
Orbit: 961 x 993 km, 82.9° (Epoch: 03 April)

Event Time Altitude Azimuth Distance (km) Brightness Sun altitude
Rises 05:47:30 0° 198° (SSW) 3,694 6.9 -7.3°
Reaches altitude 10° 05:50:03 10° 201° (SSW) 2,748 6.3 -6.8°
Maximum altitude 05:56:18 62° 282° (WNW) 1,107 4.1 -5.8°
Drops below altitude 10° 06:02:34 10° 3° (N) 2,752 6.3 -4.8°
Sets 06:05:08 0° 7° (N) 3,700 7.0 -4.3°
